Flight Track Log - Related Links

Times and Time Zones

All times are in EDT time to prevent confusion due to time zone crossing. See the SWA378 flight status page for this flight to view local times or setup timezone preferences in your user account.

Time Position Orientation Groundspeed Altitude Reporting Facility
EDT Latitude Longitude Course Direction KTS MPH feet Rate Location/Type
Wed 13:21:13 33.8917 -118.5300 214° Southwest 252 290 4,200  Level Los Angeles Center
Wed 13:22:15 33.8108 -118.5247 177° South 277 319 7,100 3,097 Climbing Los Angeles Center
Wed 13:23:17 33.7311 -118.5231 179° South 291 335 10,600 2,661 Climbing Los Angeles Center
Wed 13:24:19 33.6758 -118.4533 134° Southeast 336 387 12,600 2,613 Climbing Los Angeles Center
Wed 13:25:00 33.6333 -118.2035 90° East  Level FlightAware Approximate
Wed 13:25:21 33.6431 -118.3211 107° East 359 413 16,000  Level Los Angeles Center
Wed 13:26:23 33.6442 -118.1986 89° East 377 434 18,100 2,081 Climbing Los Angeles Center
Wed 13:27:25 33.6442 -118.0675 90° East 395 455 20,300 2,226 Climbing Los Angeles Center
Wed 13:28:27 33.6442 -117.9319 90° East 407 468 22,700 1,839 Climbing Los Angeles Center
Wed 13:29:29 33.6433 -117.7631 90° East 423 487 24,100 1,452 Climbing Los Angeles Center
Wed 13:30:31 33.6431 -117.6164 90° East 438 504 25,700 1,536 Climbing Los Angeles Center
Wed 13:31:34 33.6419 -117.4667 90° East 450 518 27,300 1,488 Climbing Los Angeles Center
Wed 13:32:36 33.6414 -117.3103 90° East 466 536 28,800 1,403 Climbing Los Angeles Center
Wed 13:33:38 33.6400 -117.1514 91° East 476 548 30,200 1,500 Climbing Los Angeles Center
Wed 13:34:40 33.6386 -116.9903 91° East 484 557 31,900 1,790 Climbing Los Angeles Center
Wed 13:35:42 33.6556 -116.8036 84° East 485 558 33,900 1,500 Climbing Los Angeles Center
Wed 13:36:44 33.6883 -116.6517 75° East 472 543 35,000 677 Climbing Los Angeles Center
Wed 13:37:46 33.7236 -116.4944 75° East 479 551 35,300 629 Climbing Los Angeles Center
Wed 13:38:48 33.7344 -116.3325 85° East 487 560 36,300 823 Climbing Los Angeles Center
Wed 13:39:50 33.7531 -116.1717 82° East 488 562 37,000 339 Climbing Los Angeles Center
Wed 13:40:52 33.7808 -116.0125 78° East 487 560 37,000  Level Los Angeles Center
Wed 13:41:55 33.8139 -115.8217 78° East 484 557 37,000  Level Los Angeles Center
Wed 13:42:57 33.8419 -115.6625 78° East 485 558 37,000  Level Los Angeles Center
Wed 13:43:59 33.8681 -115.5028 79° East 487 560 37,000  Level Los Angeles Center
Wed 13:45:01 33.8967 -115.3447 78° East 486 559 37,000  Level Los Angeles Center
Wed 13:46:03 33.9225 -115.1847 79° East 486 559 37,000  Level Los Angeles Center
Wed 13:47:05 33.9492 -115.0244 79° East 487 560 37,000  Level Los Angeles Center
Wed 13:48:07 33.9842 -114.8311 78° East 491 565 37,000  Level Los Angeles Center
Wed 13:49:09 34.0092 -114.6700 79° East 490 564 37,000  Level Los Angeles Center
Wed 13:50:11 34.0375 -114.5083 78° East 493 567 37,000  Level Los Angeles Center
Wed 13:51:13 34.0631 -114.3469 79° East 491 565 37,000  Level Los Angeles Center
Wed 13:52:16 34.0892 -114.1864 79° East 489 563 37,000  Level Los Angeles Center
Wed 13:53:18 34.1156 -114.0253 79° East 490 564 37,000  Level Los Angeles Center
Wed 13:54:20 34.1461 -113.8294 79° East 496 571 37,000  Level Los Angeles Center
Wed 13:55:22 34.1725 -113.6772 78° East 490 564 37,000  Level Albuquerque Center
Wed 13:56:24 34.1964 -113.5103 80° East 493 567 37,000  Level Albuquerque Center
Wed 13:57:26 34.2211 -113.3478 80° East 493 567 37,000  Level Albuquerque Center
Wed 13:58:28 34.2444 -113.1844 80° East 494 568 37,000  Level Albuquerque Center
Wed 13:59:30 34.2756 -112.9856 79° East 497 572 37,000  Level Albuquerque Center
Wed 14:00:32 34.3008 -112.8222 79° East 497 572 37,000  Level Albuquerque Center
Wed 14:01:34 34.3256 -112.6558 80° East 499 574 37,000  Level Albuquerque Center
Wed 14:02:36 34.3517 -112.4917 79° East 498 573 37,000  Level Albuquerque Center
Wed 14:03:38 34.3753 -112.3250 80° East 498 573 37,000  Level Albuquerque Center
Wed 14:04:40 34.3997 -112.1586 80° East 499 574 37,000  Level Albuquerque Center
Wed 14:05:42 34.4228 -111.9925 80° East 499 574 37,000  Level Albuquerque Center
Wed 14:06:44 34.4511 -111.7917 80° East 500 575 37,000  Level Albuquerque Center
Wed 14:07:46 34.4750 -111.6242 80° East 501 577 37,000  Level Albuquerque Center
Wed 14:08:48 34.4975 -111.4583 81° East 498 573 37,000  Level Albuquerque Center
Wed 14:09:50 34.5211 -111.2914 80° East 500 575 37,000  Level Albuquerque Center
Wed 14:10:52 34.5442 -111.1247 80° East 500 575 37,000  Level Albuquerque Center
Wed 14:11:53 34.5664 -110.9572 81° East 502 578 37,000  Level Albuquerque Center
Wed 14:12:55 34.5869 -110.7900 81° East 502 578 37,000  Level Albuquerque Center
Wed 14:13:57 34.6150 -110.5906 80° East 506 582 37,000  Level Albuquerque Center
Wed 14:14:59 34.6361 -110.4306 81° East 504 580 37,000  Level Albuquerque Center
Wed 14:16:01 34.6597 -110.2456 81° East 500 575 37,000  Level Albuquerque Center
Wed 14:17:02 34.6797 -110.0844 81° East 502 578 37,000  Level Albuquerque Center
Wed 14:18:04 34.7036 -109.8972 81° East 504 580 37,000  Level Albuquerque Center
Wed 14:19:06 34.7219 -109.7361 82° East 504 580 37,000  Level Albuquerque Center
Wed 14:20:08 34.7453 -109.5483 81° East 505 581 37,000  Level Albuquerque Center
Wed 14:21:09 34.7647 -109.3875 82° East 505 581 37,000  Level Albuquerque Center
Wed 14:22:11 34.7844 -109.2258 82° East 505 581 37,000  Level Albuquerque Center
Wed 14:23:13 34.8061 -109.0372 82° East 506 582 37,000  Level Albuquerque Center
Wed 14:24:14 34.8250 -108.8775 82° East 503 579 37,000  Level Albuquerque Center
Wed 14:25:16 34.8475 -108.6903 82° East 502 578 37,000  Level Albuquerque Center
Wed 14:26:18 34.8658 -108.5297 82° East 502 578 37,000  Level Albuquerque Center
Wed 14:27:19 34.8856 -108.3431 83° East 500 575 37,000  Level Albuquerque Center
Wed 14:28:21 34.9031 -108.1850 82° East 497 572 37,000  Level Albuquerque Center
Wed 14:29:23 34.9233 -107.9986 82° East 497 572 37,000  Level Albuquerque Center
Wed 14:30:24 34.9419 -107.8408 82° East 496 571 37,000  Level Albuquerque Center
Wed 14:31:26 34.9567 -107.6953 83° East 497 572 37,000  Level Albuquerque Center
Wed 14:32:27 34.9769 -107.4944 83° East 498 573 37,000  Level Albuquerque Center
Wed 14:33:29 34.9942 -107.3258 83° East 500 575 37,000  Level Albuquerque Center
Wed 14:34:31 35.0122 -107.1433 83° East 505 581 37,000  Level Albuquerque Center
Wed 14:35:32 35.0292 -106.9803 83° East 505 581 37,000  Level Albuquerque Center
Wed 14:36:34 35.0453 -106.7942 84° East 495 570 37,000  Level Albuquerque Center
Wed 14:37:36 35.0514 -106.6339 87° East 495 570 37,000  Level Albuquerque Center
Wed 14:38:37 35.0600 -106.4606 86° East 509 586 37,000  Level Albuquerque Center
Wed 14:39:39 35.0661 -106.2933 87° East 499 574 37,000  Level Albuquerque Center
Wed 14:40:41 35.0733 -106.1272 87° East 492 566 37,000  Level Albuquerque Center
Wed 14:41:42 35.0808 -105.9594 87° East 494 568 37,000  Level Albuquerque Center
Wed 14:42:44 35.0872 -105.7786 87° East 493 567 37,000  Level Albuquerque Center
Wed 14:43:46 35.0931 -105.6100 88° East 493 567 37,000  Level Albuquerque Center
Wed 14:44:48 35.0992 -105.4106 88° East 499 574 37,000  Level Albuquerque Center
Wed 14:45:49 35.1050 -105.2417 88° East 496 571 37,000  Level Albuquerque Center
Wed 14:46:51 35.1106 -105.0747 88° East 490 564 37,000  Level Albuquerque Center
Wed 14:47:53 35.1181 -104.9061 87° East 492 566 37,000  Level Albuquerque Center
Wed 14:48:55 35.1269 -104.7397 86° East 489 563 37,000  Level Albuquerque Center
Wed 14:49:57 35.1342 -104.5683 87° East 492 566 37,000  Level Albuquerque Center
Wed 14:50:58 35.1442 -104.4022 86° East 491 565 37,000  Level Albuquerque Center
Wed 14:52:00 35.1508 -104.2358 87° East 492 566 37,000  Level Albuquerque Center
Wed 14:53:02 35.1586 -104.0700 87° East 490 564 37,000  Level Albuquerque Center
Wed 14:54:04 35.1658 -103.8819 87° East 494 568 37,000  Level Albuquerque Center
Wed 14:55:06 35.1725 -103.7114 87° East 498 573 37,000  Level Albuquerque Center
Wed 14:56:08 35.1797 -103.5433 87° East 494 568 37,000  Level Albuquerque Center
Wed 14:57:10 35.1858 -103.3758 87° East 492 566 37,000  Level Albuquerque Center
Wed 14:58:12 35.1928 -103.1808 87° East 490 564 37,000  Level Albuquerque Center
Wed 14:59:14 35.1992 -103.0142 87° East 489 563 37,000  Level Albuquerque Center
Wed 15:00:15 35.2031 -102.8711 88° East 489 563 37,000  Level Albuquerque Center
Wed 15:01:17 35.2094 -102.6722 88° East 489 563 37,000  Level Albuquerque Center
Wed 15:02:19 35.2147 -102.5067 88° East 488 562 37,000  Level Albuquerque Center
Wed 15:03:21 35.2194 -102.3422 88° East 487 560 37,000  Level Albuquerque Center
Wed 15:04:23 35.2236 -102.1756 88° East 490 564 37,000  Level Albuquerque Center
Wed 15:05:25 35.2469 -102.0125 80° East 488 562 37,000  Level Albuquerque Center
Wed 15:06:27 35.2817 -101.8214 77° East 491 565 37,000  Level Albuquerque Center
Wed 15:07:29 35.3103 -101.6567 78° East 491 565 37,000  Level Albuquerque Center
Wed 15:08:31 35.3353 -101.5172 78° East 489 563 37,000  Level Albuquerque Center
Wed 15:09:33 35.3686 -101.3225 78° East 486 559 37,000  Level Albuquerque Center
Wed 15:10:35 35.3961 -101.1550 79° East 485 558 37,000  Level Albuquerque Center
Wed 15:11:37 35.4147 -100.9933 82° East 478 550 37,000  Level Albuquerque Center
Wed 15:12:39 35.4131 -100.8292 91° East 483 556 37,000  Level Albuquerque Center
Wed 15:13:41 35.4128 -100.6639 90° East 485 558 37,000  Level Albuquerque Center
Wed 15:14:43 35.4114 -100.5025 91° East 486 559 37,000  Level Albuquerque Center
Wed 15:15:45 35.4103 -100.3033 90° East 487 560 37,000  Level Albuquerque Center
Wed 15:16:47 35.4078 -100.1344 91° East 493 567 37,000  Level Albuquerque Center
Wed 15:17:49 35.4061 -99.9700 91° East 488 562 37,000  Level Albuquerque Center
Wed 15:18:51 35.4050 -99.8053 90° East 486 559 37,000  Level Albuquerque Center
Wed 15:19:53 35.4028 -99.6408 91° East 484 557 37,000 361 Level Albuquerque Center
Wed 15:20:14 35.4000 -99.5808 93° East 487 560 37,500 1,037 Climbing Fort Worth Center
Wed 15:21:14 35.3986 -99.4153 91° East 482 555 38,400 750 Climbing Fort Worth Center
Wed 15:22:14 35.3947 -99.2497 92° East 482 555 39,000 300 Climbing Fort Worth Center
Wed 15:23:14 35.3931 -99.0839 91° East 482 555 39,000  Level Fort Worth Center
Wed 15:24:14 35.3908 -98.9186 91° East 482 555 39,000  Level Fort Worth Center
Wed 15:25:14 35.3864 -98.7503 92° East 482 555 39,000  Level Fort Worth Center
Wed 15:26:14 35.3839 -98.5875 91° East 482 555 39,000  Level Fort Worth Center
Wed 15:27:14 35.3814 -98.4244 91° East 477 549 39,000  Level Fort Worth Center
Wed 15:28:14 35.3761 -98.2589 92° East 477 549 39,000  Level Fort Worth Center
Wed 15:29:14 35.3711 -98.0933 92° East 477 549 39,000  Level Fort Worth Center
Wed 15:30:14 35.3656 -97.9303 92° East 477 549 39,000  Level Fort Worth Center
Wed 15:31:14 35.3619 -97.7700 92° East 477 549 39,000  Level Fort Worth Center
Wed 15:32:14 35.3561 -97.6094 93° East 477 549 39,000  Level Fort Worth Center
Wed 15:33:14 35.3644 -97.4264 87° East 479 551 39,000  Level Fort Worth Center
Wed 15:34:14 35.3644 -97.2658 90° East 479 551 39,000  Level Fort Worth Center
Wed 15:35:14 35.3661 -97.1031 89° East 479 551 39,000  Level Fort Worth Center
Wed 15:36:14 35.3700 -96.9478 88° East 468 539 39,000  Level Fort Worth Center
Wed 15:37:14 35.3714 -96.7872 89° East 468 539 39,000  Level Fort Worth Center
Wed 15:38:14 35.3747 -96.6319 88° East 462 532 39,000  Level Fort Worth Center
Wed 15:39:14 35.3778 -96.4689 89° East 462 532 39,000  Level Fort Worth Center
Wed 15:40:14 35.3783 -96.3061 90° East 462 532 39,000  Level Fort Worth Center
Wed 15:41:14 35.3789 -96.1456 90° East 467 537 39,000  Level Fort Worth Center
Wed 15:42:14 35.3836 -95.9825 88° East 472 543 39,000  Level Fort Worth Center
Wed 15:43:14 35.3858 -95.8247 89° East 472 543 39,000  Level Fort Worth Center
Wed 15:44:14 35.3858 -95.6642 90° East 472 543 39,000  Level Fort Worth Center
Wed 15:46:44 35.3878 -95.2825 90° East 472 543 39,000  Level Memphis Center
Wed 15:47:44 35.3878 -95.1244 90° East 472 543 39,000  Level Memphis Center
Wed 15:48:44 35.3894 -94.9667 89° East 467 537 39,000  Level Memphis Center
Wed 15:49:44 35.3869 -94.8036 91° East 467 537 39,000  Level Memphis Center
Wed 15:50:44 35.3883 -94.6458 89° East 467 537 39,000  Level Memphis Center
Wed 15:51:44 35.3875 -94.4853 90° East 462 532 39,000  Level Memphis Center
Wed 15:52:44 35.3872 -94.3019 90° East 471 542 39,000  Level Memphis Center
Wed 15:53:44 35.3775 -94.1436 94° East 476 548 39,000  Level Memphis Center
Wed 15:54:44 35.3678 -93.9828 94° East 476 548 39,000  Level Memphis Center
Wed 15:55:44 35.3556 -93.8244 95° East 476 548 39,000  Level Memphis Center
Wed 15:56:44 35.3447 -93.6839 95° East 476 548 39,000  Level Memphis Center
Wed 15:57:44 35.3344 -93.5258 95° East 471 542 39,000  Level Memphis Center
Wed 15:58:44 35.3200 -93.3497 96° East 466 536 39,000  Level Memphis Center
Wed 15:59:44 35.3108 -93.2017 94° East 453 521 39,000  Level Memphis Center
Wed 16:00:44 35.2978 -93.0436 96° East 453 521 39,000  Level Memphis Center
Wed 16:01:44 35.2842 -92.8881 96° East 453 521 39,000  Level Memphis Center
Wed 16:02:44 35.2728 -92.7325 95° East 461 531 39,000  Level Memphis Center
Wed 16:03:44 35.2589 -92.5819 96° East 471 542 39,000  Level Memphis Center
Wed 16:04:44 35.2447 -92.4267 96° East 471 542 39,000  Level Memphis Center
Wed 16:05:44 35.2328 -92.2686 95° East 464 534 39,000  Level Memphis Center
Wed 16:06:44 35.2183 -92.1158 97° East 464 534 39,000  Level Memphis Center
Wed 16:07:44 35.2058 -91.9631 96° East 464 534 39,000  Level Memphis Center
Wed 16:08:44 35.1931 -91.8106 96° East 459 528 39,000  Level Memphis Center
Wed 16:09:44 35.1781 -91.6578 97° East 454 522 39,000  Level Memphis Center
Wed 16:10:44 35.1647 -91.5078 96° East 454 522 39,000  Level Memphis Center
Wed 16:11:44 35.1517 -91.3425 98° East 449 517 39,000  Level Memphis Center
Wed 16:12:00 35.1408 -91.3117 98° East  Level FlightAware Approximate
Wed 16:12:44 35.1381 -91.1900 96° East 444 511 39,000  Level Memphis Center
Wed 16:13:44 35.1225 -91.0350 97° East 449 517 39,000  Level Memphis Center
Wed 16:14:44 35.1106 -90.9003 96° East 455 524 39,000  Level Memphis Center
Wed 16:15:44 35.0944 -90.7428 97° East 460 529 39,000  Level Memphis Center
Wed 16:17:00 35.0710 -90.5459 98° East  Level FlightAware Approximate
Wed 16:17:44 35.0636 -90.4358 98° East 465 535 39,000  Level Memphis Center
Wed 16:18:44 35.0469 -90.2758 97° East 465 535 39,000  Level Memphis Center
Wed 16:19:44 35.0322 -90.1236 97° East 460 529 39,000  Level Memphis Center
Wed 16:20:44 35.0150 -89.9539 97° East 460 529 39,000  Level Memphis Center
Wed 16:21:44 34.9978 -89.7969 98° East 468 539 39,000  Level Memphis Center
Wed 16:22:44 34.9719 -89.6322 101° East 482 555 39,000  Level Memphis Center
Wed 16:23:44 34.9417 -89.4781 103° East 475 547 39,000  Level Memphis Center
Wed 16:24:44 34.9217 -89.3389 100° East 464 534 39,000  Level Memphis Center
Wed 16:25:44 34.8975 -89.1847 101° East 464 534 39,000 -400 Level Memphis Center
Wed 16:26:44 34.8728 -89.0281 101° East 471 542 38,200 -850 Descending Memphis Center
Wed 16:27:44 34.8503 -88.8742 100° East 466 536 37,300 -950 Descending Memphis Center
Wed 16:28:44 34.8253 -88.7203 101° East 466 536 36,300 -950 Descending Memphis Center
Wed 16:29:44 34.7981 -88.5489 101° East 466 536 35,400 -650 Descending Memphis Center
Wed 16:30:44 34.7750 -88.4028 101° East 458 527 35,000 -200 Descending Memphis Center
Wed 16:31:44 34.7517 -88.2517 101° East 452 520 35,000  Level Memphis Center
Wed 16:32:44 34.7258 -88.0906 101° East 462 532 35,000  Level Memphis Center
Wed 16:33:44 34.7019 -87.9372 101° East 471 542 35,000  Level Memphis Center
Wed 16:34:44 34.6781 -87.7861 101° East 459 528 35,000  Level Memphis Center
Wed 16:35:44 34.6497 -87.6331 103° East 459 528 35,000 -585 Level Memphis Center
Wed 16:38:09 34.5889 -87.2633 101° East 471 542 33,000 -585 Descending Atlanta Center
Wed 16:39:09 34.5575 -87.1083 104° East 471 542 33,000  Level Atlanta Center
Wed 16:40:09 34.5278 -86.9533 103° East 471 542 33,000  Level Atlanta Center
Wed 16:41:09 34.4981 -86.7961 103° East 471 542 33,000  Level Atlanta Center
Wed 16:42:09 34.4681 -86.6414 103° East 471 542 33,000  Level Atlanta Center
Wed 16:43:09 34.4358 -86.4819 104° East 471 542 33,000  Level Atlanta Center
Wed 16:44:09 34.4056 -86.3247 103° East 471 542 33,000 -397 Level Atlanta Center
Wed 16:45:10 34.3747 -86.1681 103° East 471 542 32,200 -1,500 Descending Atlanta Center
Wed 16:46:09 34.3461 -86.0189 103° East 466 536 30,000 -2,218 Descending Atlanta Center
Wed 16:47:09 34.3169 -85.8722 103° East 455 524 27,800 -2,000 Descending Atlanta Center
Wed 16:48:09 34.2917 -85.7486 104° East 428 493 26,000 -2,000 Descending Atlanta Center
Wed 16:50:09 34.2386 -85.4811 103° East 406 467 21,800 -2,067 Descending Atlanta Center
Wed 16:51:09 34.2111 -85.3500 104° East 397 457 19,800 -2,000 Descending Atlanta Center
Wed 16:52:09 34.1872 -85.2267 103° East 385 443 17,800 -2,000 Descending Atlanta Center
Wed 16:53:09 34.1528 -85.1106 110° East 374 430 15,800 -1,900 Descending Atlanta Center
Wed 16:54:09 34.0847 -85.0194 132° Southeast 361 415 14,000 -1,350 Descending Atlanta Center
Wed 16:55:09 34.0103 -84.9233 133° Southeast 361 415 13,100 -900 Descending Atlanta Center
Wed 16:56:09 33.9419 -84.8375 134° Southeast 356 410 12,200 -550 Descending Atlanta Center
Wed 16:57:09 33.8778 -84.7594 135° Southeast 344 396 12,000 -112 Descending Atlanta Center
Wed 16:57:56 33.8333 -84.7000 132° Southeast 285 328 12,000  Level Atlanta TRACON
Wed 16:59:01 33.7833 -84.6333 132° Southeast 264 304 12,000 -100 Level Atlanta TRACON
Wed 16:59:56 33.7333 -84.5667 132° Southeast 269 310 11,800 -700 Descending Atlanta TRACON
Wed 17:01:01 33.7333 -84.4667 90° East 268 308 10,600 -1,056 Descending Atlanta TRACON
Wed 17:02:01 33.7333 -84.3833 90° East 265 305 9,600 -1,050 Descending Atlanta TRACON
Wed 17:03:01 33.7333 -84.3000 90° East 256 295 8,500 -1,150 Descending Atlanta TRACON
Wed 17:04:01 33.7333 -84.2167 90° East 248 285 7,300 -783 Descending Atlanta TRACON
Wed 17:04:56 33.7167 -84.1667 112° Southeast 239 275 7,000 -783 Descending Atlanta TRACON
Wed 17:05:56 33.6667 -84.2000 209° Southwest 194 223 5,800 -1,450 Descending Atlanta TRACON
Wed 17:06:56 33.6500 -84.2500 248° West 186 214 4,100 -1,600 Descending Atlanta TRACON
Wed 17:07:56 33.6500 -84.3167 270° West 171 197 2,600 -1,150 Descending Atlanta TRACON
Wed 17:08:56 33.6500 -84.3500 270° West 135 155 1,800 -750 Descending Atlanta TRACON
Wed 17:09:56 33.6500 -84.4000 270° West 140 161 1,100 -700 Descending Atlanta TRACON
Wed 17:11:00 33.6333 -84.4167 248° West  Level FlightAware Approximate
Wed 17:18:00 33.6367 -84.4279 248° West  Level Estimated

Login

Don't have an account? Register now (free) for customized features, flight alerts, and more!